Weather History for KGUY - March, 2014

Change the Weather History Date:

Wednesday, March 26, 2014

  Actual Average Record
Temperature  
Mean Temperature 60 °F 49 °F  
Max Temperature 78 °F 64 °F 84 °F (2012)
Min Temperature 41 °F 34 °F 15 °F (2002)
Degree Days  
Heating Degree Days 5 16  
Month to date heating degree days 560 506  
Since 1 July heating degree days 4126 3973  
Cooling Degree Days 0 0  
Month to date cooling degree days 0 0  
Year to date cooling degree days 0 0  
Growing Degree Days 9 (Base 50)    
Moisture  
Dew Point 30 °F    
Average Humidity 42    
Maximum Humidity 66    
Minimum Humidity 17    
Precipitation  
Precipitation 0.00 in 0.05 in 0.30 in (2005)
Month to date precipitation 0.21 1.17  
Year to date precipitation 0.55 2.04  
Snow  
Snow 0.00 in - - ()
Month to date snowfall 1.5  
Since 1 July snowfall 14.2  
Snow Depth 0.00 in    
Sea Level Pressure  
Sea Level Pressure 29.62 in    
Wind  
Wind Speed 20 mph (South)    
Max Wind Speed 32 mph    
Max Gust Speed 40 mph    
Visibility 10 miles    
Events      
T = Trace of Precipitation, MM = Missing Value Source: NWS Daily Summary

Daily Weather History Graph

Daily Weather History Graph

Search for Another Location

Airport or City:

Trip Planner

Search our weather history database for the weather conditions in past years. The results will help you decide how hot, cold, wet, or windy it might be!

Date:

Astronomy

Mar. 26, 2014 Rise Set
Actual Time 7:40 AM CDT 8:03 PM CDT
Civil Twilight 7:14 AM CDT 8:29 PM CDT
Nautical Twilight 6:44 AM CDT 8:59 PM CDT
Astronomical Twilight 6:13 AM CDT 9:30 PM CDT
Moon 4:44 AM CDT (3/26) 3:50 PM CDT (3/26)
Length of Visible Light 13h 14m
Length of Day
12h 22m
Waning Crescent, 21% of the Moon is Illuminated
Mar 26
Waning Crescent
Mar 30
New
Apr 7
First Quarter
Apr 15
Full
Apr 22
Last Quarter

Hourly Weather History & Observations

Time (CDT) Temp. Windchill Dew Point Humidity Pressure Visibility Wind Dir Wind Speed Gust Speed Precip Events Conditions
12:53 AM 44.1 °F 36.2 °F 16.0 °F 32% 29.94 in 10.0 mi South 18.4 mph - N/A   Clear
1:53 AM 43.0 °F 34.8 °F 16.0 °F 34% 29.91 in 10.0 mi South 18.4 mph 26.5 mph N/A   Clear
2:53 AM 41.0 °F 32.8 °F 16.0 °F 36% 29.88 in 10.0 mi South 16.1 mph - N/A   Clear
3:53 AM 41.0 °F 34.3 °F 16.0 °F 36% 29.85 in 10.0 mi South 11.5 mph - N/A   Clear
4:53 AM 44.1 °F 37.1 °F 18.0 °F 35% 29.81 in 10.0 mi SSW 15.0 mph - N/A   Clear
5:53 AM 44.1 °F 36.8 °F 21.0 °F 40% 29.77 in 10.0 mi South 16.1 mph - N/A   Clear
6:53 AM 44.1 °F 36.2 °F 23.0 °F 43% 29.75 in 10.0 mi South 18.4 mph - N/A   Clear
7:53 AM 43.0 °F 35.1 °F 23.0 °F 45% 29.75 in 10.0 mi South 17.3 mph - N/A   Clear
8:53 AM 45.0 °F 36.9 °F 30.0 °F 56% 29.75 in 10.0 mi South 20.7 mph 33.4 mph N/A   Mostly Cloudy
9:53 AM 44.1 °F 34.4 °F 30.9 °F 60% 29.74 in 10.0 mi South 27.6 mph 34.5 mph N/A   Overcast
10:53 AM 46.9 °F - 35.1 °F 63% 29.73 in 10.0 mi South 25.3 mph 34.5 mph N/A   Partly Cloudy
11:37 AM 48.0 °F - 37.9 °F 68% 29.75 in 10.0 mi South 25.3 mph 35.7 mph N/A   Mostly Cloudy
11:53 AM 48.0 °F - 37.9 °F 68% 29.71 in 10.0 mi South 23.0 mph 35.7 mph N/A   Mostly Cloudy
12:42 PM 53.1 °F - 39.9 °F 61% 29.70 in 10.0 mi South 27.6 mph 32.2 mph N/A   Scattered Clouds
12:53 PM 54.0 °F - 39.9 °F 59% 29.65 in 10.0 mi South 26.5 mph 35.7 mph N/A   Scattered Clouds
1:29 PM 55.0 °F - 42.1 °F 62% 29.66 in 10.0 mi South 24.2 mph 38.0 mph N/A   Mostly Cloudy
1:44 PM 55.9 °F - 43.0 °F 62% 29.65 in 10.0 mi South 26.5 mph 36.8 mph N/A   Scattered Clouds
1:53 PM 59.0 °F - 44.1 °F 58% 29.59 in 10.0 mi South 26.5 mph 35.7 mph N/A   Partly Cloudy
2:53 PM 66.0 °F - 44.1 °F 45% 29.49 in 10.0 mi South 25.3 mph 36.8 mph N/A   Mostly Cloudy
3:53 PM 71.1 °F - 43.0 °F 36% 29.43 in 10.0 mi South 21.9 mph 33.4 mph N/A   Partly Cloudy
4:53 PM 77.0 °F - 30.9 °F 19% 29.37 in 10.0 mi SW 24.2 mph 35.7 mph N/A   Partly Cloudy
5:53 PM 75.0 °F - 28.0 °F 18% 29.35 in 10.0 mi SSW 24.2 mph 34.5 mph N/A   Partly Cloudy
6:53 PM 75.0 °F - 30.0 °F 19% 29.33 in 10.0 mi SSW 26.5 mph 36.8 mph N/A   Clear
7:53 PM 72.0 °F - 24.1 °F 17% 29.34 in 10.0 mi SSW 21.9 mph - N/A   Partly Cloudy
8:53 PM 64.9 °F - 24.1 °F 21% 29.36 in 10.0 mi South 15.0 mph - N/A   Clear
9:53 PM 66.9 °F - 26.1 °F 21% 29.35 in 10.0 mi SSW 23.0 mph 31.1 mph N/A   Clear
10:53 PM 63.0 °F - 28.0 °F 27% 29.38 in 10.0 mi SSW 16.1 mph 25.3 mph N/A   Clear
11:53 PM 59.0 °F - 34.0 °F 39% 29.38 in 10.0 mi South 12.7 mph - N/A   Clear